Theta_e
340 340 336 336 337 337 337 336 332 331 331 336 336 330 330 329 329 328 327 322 320 317 314 306 296 293 299 301 301 301 300 301 303 304 305 305 306 306
338 338 337 335 337 336 336 336 336 334 333 334 330 328 328 328 328 327 322 317 317 314 312 307 305 294 298 299 300 300 299 299 299 302 302 303 304 304
336 336 336 335 334 334 335 335 336 336 334 335 329 327 325 326 325 323 319 316 314 315 314 311 308 294 296 298 299 299 298 299 299 298 298 299 302 303
336 334 332 330 334 335 332 335 335 336 336 336 328 325 324 322 321 320 316 314 313 313 310 310 300 295 297 297 298 298 298 298 299 298 298 297 299 301
335 331 328 329 331 329 330 332 333 334 334 334 330 324 321 319 316 315 313 312 310 310 308 299 294 294 293 293 293 295 297 298 298 298 297 297 299 300
334 325 326 324 325 327 328 330 325 323 325 325 329 325 320 317 316 313 310 309 307 308 307 296 295 296 294 295 294 292 293 296 297 297 296 297 299 301
331 323 319 317 317 319 323 321 324 323 324 323 323 326 320 315 314 313 311 308 307 307 306 298 297 297 296 296 296 292 292 295 296 295 296 298 300 301
326 321 320 316 316 317 315 317 319 325 324 324 323 322 325 322 317 314 311 307 307 306 305 299 297 298 297 295 296 295 290 291 292 296 297 300 300 301
325 320 319 319 318 319 319 318 318 318 322 325 325 323 322 324 320 314 312 311 310 309 306 302 299 300 296 295 296 297 291 290 292 296 299 300 300 301
323 320 318 320 319 323 324 323 322 320 319 321 324 324 323 323 322 321 319 312 311 310 306 304 300 299 298 295 296 296 295 290 292 295 299 300 300 301
324 323 323 324 321 320 324 325 324 324 321 320 321 320 318 319 322 320 314 310 308 306 306 306 301 298 296 296 296 296 297 290 291 294 298 300 301 301
323 320 319 322 321 321 323 325 325 324 324 322 321 319 318 318 320 320 320 315 311 307 307 306 301 296 295 296 297 298 298 292 291 293 297 300 301 304
324 324 324 323 322 322 322 326 326 326 324 325 325 323 323 319 320 321 320 320 315 316 312 307 302 296 300 296 297 299 299 295 294 295 297 299 300 301
323 324 323 323 323 322 322 323 324 322 324 324 324 323 323 322 320 320 320 319 319 321 319 311 306 301 300 296 299 299 298 294 293 295 297 298 299 300
313 315 315 315 316 318 321 322 321 320 323 324 323 322 322 321 322 320 321 320 317 317 317 314 311 306 307 303 299 300 299 295 293 295 296 298 300 301
308 308 308 308 309 312 315 316 318 321 322 323 323 321 321 322 322 320 321 319 317 316 315 313 311 310 304 304 302 299 300 295 294 295 296 297 299 300
309 310 310 310 310 312 312 314 316 318 320 321 322 322 322 322 322 322 321 319 316 314 310 309 308 306 304 304 299 299 298 294 294 295 296 297 297 298
306 307 308 309 310 311 312 312 313 316 317 319 320 320 320 321 321 322 322 320 317 314 310 308 305 302 301 300 302 299 295 294 294 295 296 297 297 297
306 307 308 309 310 310 310 311 312 312 314 316 318 319 319 320 321 320 321 320 319 315 312 309 304 305 303 305 301 302 295 294 294 295 296 297 296 297
305 306 307 308 309 310 311 311 312 312 313 314 314 317 318 319 320 320 319 321 319 314 309 307 305 305 306 307 299 300 295 293 294 295 296 295 293 293
305 305 305 307 308 309 310 311 311 312 313 313 314 315 316 318 319 319 318 319 320 314 309 306 308 307 307 305 301 295 293 292 295 295 295 296 296 297
303 304 304 304 305 307 308 309 310 311 311 313 314 315 315 317 318 318 318 319 319 315 315 311 308 306 305 306 300 294 292 291 292 293 296 296 297 298
302 302 303 303 303 304 305 307 308 309 310 312 314 315 316 317 317 317 318 319 319 316 313 306 304 304 305 305 300 294 293 292 292 293 294 293 293 295
Wind_Speed
11 11 10 9 9 7 6 5 4 3 2 1 2 6 6 4 1 9 13 13 14 9 3 3 5 9 6 7 9 9 10 12 13 14 16 18 21 21
13 13 11 9 9 8 7 6 5 4 3 2 2 5 4 3 4 10 12 11 11 8 6 2 4 5 5 6 7 8 9 11 13 14 18 18 21 22
16 15 13 12 11 10 8 8 7 7 5 2 1 3 3 1 6 10 12 9 9 8 4 1 4 10 6 7 7 8 9 9 12 15 19 20 19 22
21 18 17 14 13 12 11 9 8 7 5 2 2 1 2 3 7 10 10 9 7 5 3 0 9 11 8 8 8 8 9 9 10 13 19 20 20 22
24 22 20 19 16 14 13 11 8 7 5 4 4 4 3 7 9 9 9 8 7 5 4 6 9 9 10 11 11 8 8 8 9 12 17 20 20 24
31 27 23 23 20 18 15 13 11 8 6 5 5 4 4 6 10 11 10 11 9 8 7 6 5 9 9 10 13 13 9 8 8 12 16 17 18 22
32 28 26 25 23 22 19 17 14 10 7 4 4 4 6 7 12 12 13 13 10 12 10 8 5 6 6 7 11 14 12 9 9 12 13 14 16 22
32 29 25 26 24 25 22 19 16 13 9 5 4 4 6 8 10 14 13 10 5 15 15 12 10 6 5 4 8 13 13 11 11 12 12 13 17 22
32 33 28 24 27 25 24 19 16 15 11 9 6 5 5 9 11 14 16 11 7 8 20 16 13 10 5 1 4 9 13 13 12 13 11 12 16 21
32 33 32 26 29 24 21 21 19 18 17 12 9 6 6 6 12 10 15 14 9 9 18 7 14 11 9 4 1 6 12 13 13 12 10 10 12 20
21 21 24 23 28 29 21 20 18 17 16 15 13 11 9 9 11 10 14 15 5 9 20 7 11 10 10 8 3 2 8 12 13 11 9 8 11 18
18 20 23 20 22 25 22 20 18 16 14 14 16 13 11 11 13 13 13 16 7 6 18 13 13 11 5 11 7 3 3 10 11 10 10 11 11 11
20 17 17 22 25 25 25 20 19 14 14 13 12 11 9 8 10 15 14 17 14 8 10 23 16 18 5 5 10 7 2 4 5 6 11 13 17 15
16 20 22 22 23 23 25 25 24 20 14 13 14 14 13 11 10 14 15 14 15 14 8 28 12 26 14 8 6 10 5 1 4 4 5 9 15 20
15 14 15 14 14 16 18 20 20 18 16 17 18 17 15 12 9 10 14 15 14 17 9 21 21 22 24 9 10 10 11 3 4 4 6 8 10 11
19 19 19 20 24 17 15 18 17 18 19 20 19 19 15 13 12 11 15 18 17 14 12 17 20 15 22 9 9 15 9 6 6 6 7 9 11 12
16 16 17 19 20 19 22 23 20 19 20 19 20 20 19 18 17 13 13 19 15 19 18 17 14 16 17 16 12 18 11 12 9 7 8 10 12 12
19 25 25 25 26 26 25 28 28 26 23 23 25 25 23 23 20 16 14 21 19 21 21 24 23 20 16 11 9 19 11 13 11 8 7 10 12 12
27 28 27 27 26 28 27 27 29 27 27 30 30 27 26 27 23 21 18 18 18 22 25 28 30 23 15 6 11 17 15 16 14 10 8 7 11 11
31 29 27 25 26 25 25 26 25 24 27 28 33 31 29 29 27 26 22 21 20 18 22 27 29 27 25 17 13 24 19 22 18 14 14 12 14 17
29 31 28 27 26 26 27 26 25 26 26 27 29 31 32 31 30 28 25 23 22 23 22 27 33 29 22 21 17 18 22 21 14 13 18 14 11 11
31 31 28 28 26 27 26 24 24 25 26 25 27 29 31 32 31 30 27 23 25 26 26 20 27 31 26 23 20 25 24 23 19 18 18 11 8 8
33 33 31 30 30 33 30 30 29 29 28 27 27 27 29 30 31 30 28 27 26 26 25 27 30 28 23 25 31 31 26 24 20 17 9 10 7 10
Wind_Direction
202 201 202 205 203 208 218 236 279 304 318 77 12 11 10 26 129 205 207 215 196 198 202 65 35 14 24 34 33 30 25 21 6 11 19 19 6 4
201 201 203 207 205 203 209 221 227 258 279 313 357 356 12 52 191 211 193 190 196 185 189 130 26 41 18 16 15 14 16 17 12 6 19 18 6 5
202 200 205 201 201 200 203 211 213 213 245 149 81 10 40 64 181 188 196 189 187 221 234 149 37 51 17 10 7 4 7 1 9 7 18 14 7 6
202 196 199 199 196 196 193 200 203 206 227 238 143 136 116 170 184 194 186 189 195 213 181 163 71 55 36 17 4 349 354 357 357 3 15 10 8 7
200 200 197 192 196 197 193 191 189 182 187 203 156 173 149 178 178 183 190 188 191 203 163 94 81 73 51 35 22 358 349 355 346 357 9 4 8 11
205 205 200 199 194 192 186 180 172 171 174 189 174 163 173 190 200 186 184 197 192 198 177 145 126 100 67 42 26 18 5 359 342 353 5 4 8 10
201 199 203 202 199 193 180 177 172 172 178 189 193 181 181 176 203 210 205 202 208 212 190 180 176 125 89 53 26 24 19 20 5 10 11 13 11 11
190 197 199 198 194 194 191 193 195 183 193 217 232 257 226 213 200 205 189 171 211 225 202 191 198 176 127 53 38 25 21 23 22 27 23 27 17 16
198 202 194 193 193 197 202 207 210 210 208 206 226 248 260 230 207 201 207 203 197 196 192 196 202 194 168 111 35 26 20 27 34 36 30 37 28 29
201 203 199 195 198 199 201 207 214 217 219 217 225 252 263 238 212 230 221 200 208 201 194 180 198 200 191 198 35 15 17 27 38 40 37 41 32 32
198 199 203 201 206 208 197 201 207 217 220 225 230 242 259 248 212 199 184 178 174 200 197 193 189 178 197 206 226 331 9 22 40 41 39 38 35 40
209 212 219 212 216 217 209 205 211 217 211 219 230 232 248 248 240 221 208 189 169 188 208 180 164 167 177 211 195 227 352 12 42 47 42 46 49 42
221 212 226 227 232 230 224 212 223 225 221 213 219 215 211 226 231 213 219 221 201 219 207 183 178 175 130 146 184 201 175 29 35 24 33 57 55 56
213 217 226 241 237 230 228 230 238 237 224 210 219 229 226 220 219 219 213 220 232 239 242 194 182 181 161 150 169 181 169 98 77 54 51 42 49 51
218 217 213 233 236 241 232 230 232 228 218 215 218 230 231 233 202 200 215 219 232 243 247 207 214 195 187 156 150 171 156 152 113 84 70 68 62 56
241 243 242 239 247 240 244 238 225 224 216 220 225 229 226 211 210 196 198 211 209 217 217 210 216 205 183 179 155 160 164 143 139 109 91 80 72 66
239 237 243 242 244 239 234 237 230 228 220 218 223 226 222 216 215 205 188 192 189 190 187 201 200 189 186 178 148 159 157 138 142 131 109 93 80 72
242 242 237 238 235 232 228 228 229 224 229 226 221 224 227 223 212 208 196 196 185 186 182 189 178 163 155 165 172 160 157 148 149 138 125 110 95 80
231 233 233 232 231 229 228 229 227 225 224 230 231 225 225 225 215 211 210 196 198 187 192 190 176 176 167 159 171 180 167 159 153 144 135 120 114 104
231 229 233 231 233 230 226 227 227 221 222 223 230 225 221 220 219 218 214 213 189 183 176 184 184 188 180 176 158 178 181 171 161 151 135 124 116 105
226 231 234 232 227 229 227 224 222 222 222 221 226 224 219 219 220 221 221 212 198 180 177 187 201 195 193 173 134 156 178 175 168 163 151 145 144 140
229 231 229 227 227 221 220 222 222 223 222 221 224 224 220 218 218 221 221 208 200 191 202 190 187 189 179 176 155 152 164 175 180 169 163 159 167 167
226 227 226 225 220 222 224 225 228 232 227 219 217 222 218 215 216 219 219 213 194 190 174 165 172 180 180 173 161 156 160 163 165 168 168 177 175 159